| time (UTC) | temp C | wind direction | speed KPH | gust KPH | rain 1hr cm | rain 24hr cm | rain mn cm | humidity % | barometer mb |
| 20260508164459 | 20 | 360 | 0.0 | 0.0 | 0.03 | 0.97 | 0.23 | 48 | 1018.1 |
| 20260508163001 | 20 | 360 | 0.0 | 1.6 | 0.03 | 0.97 | 0.23 | 50 | 1018.2 |
| 20260508161500 | 19 | 360 | 0.0 | 1.6 | 0.03 | 0.97 | 0.23 | 52 | 1018.4 |
| 20260508152959 | 18 | 360 | 0.0 | 0.0 | 0.00 | 1.09 | 0.20 | 56 | 1018.9 |
| 20260508151458 | 18 | 360 | 0.0 | 1.6 | 0.03 | 1.09 | 0.20 | 60 | 1018.8 |
| 20260508150004 | 17 | 360 | 0.0 | 1.6 | 0.03 | 1.30 | 0.20 | 57 | 1018.6 |
| 20260508144459 | 17 | 360 | 0.0 | 0.0 | 0.03 | 1.30 | 0.20 | 69 | 1018.7 |
| 20260508143000 | 17 | 360 | 0.0 | 0.0 | 0.03 | 1.30 | 0.20 | 68 | 1018.8 |
| 20260508141459 | 16 | 360 | 0.0 | 0.0 | 0.00 | 1.27 | 0.18 | 76 | 1019.0 |
| 20260508134458 | 15 | 360 | 0.0 | 0.0 | 0.00 | 1.50 | 0.18 | 90 | 1018.9 |
| 20260508131459 | 13 | 360 | 0.0 | 1.6 | 0.00 | 1.50 | 0.18 | 93 | 1018.6 |
| 20260508125959 | 12 | 360 | 0.0 | 1.6 | 0.03 | 1.63 | 0.18 | 94 | 1018.6 |
| 20260508124459 | 12 | 360 | 0.0 | 0.0 | 0.03 | 1.63 | 0.18 | 95 | 1018.3 |
| 20260508123001 | 11 | 360 | 0.0 | 0.0 | 0.03 | 1.63 | 0.18 | 95 | 1018.2 |
| 20260508121459 | 11 | 360 | 0.0 | 1.6 | 0.03 | 1.63 | 0.18 | 95 | 1017.9 |
| 20260508120000 | 11 | 360 | 0.0 | 0.0 | 0.00 | 1.60 | 0.15 | 95 | 1017.9 |
| 20260508114459 | 10 | 360 | 0.0 | 0.0 | 0.03 | 1.60 | 0.15 | 94 | 1017.7 |
| 20260508113000 | 10 | 360 | 0.0 | 0.0 | 0.03 | 1.60 | 0.15 | 94 | 1017.2 |
| 20260508111459 | 10 | 360 | 0.0 | 0.0 | 0.03 | 1.60 | 0.15 | 94 | 1017.0 |
| 20260508110001 | 10 | 360 | 0.0 | 0.0 | 0.03 | 1.73 | 0.15 | 94 | 1016.7 |
| 20260508101458 | 10 | 360 | 0.0 | 0.0 | 0.03 | 1.70 | 0.13 | 94 | 1015.8 |
| 20260508100000 | 10 | 360 | 0.0 | 0.0 | 0.03 | 1.96 | 0.13 | 94 | 1015.6 |
| 20260508094458 | 10 | 360 | 0.0 | 0.0 | 0.03 | 1.96 | 0.13 | 94 | 1015.6 |
| 20260508093000 | 10 | 360 | 0.0 | 0.0 | 0.03 | 1.96 | 0.13 | 94 | 1015.6 |
| 20260508091458 | 10 | 360 | 0.0 | 0.0 | 0.00 | 1.93 | 0.10 | 94 | 1015.6 |
| 20260508090005 | 10 | 360 | 0.0 | 0.0 | 0.03 | 1.93 | 0.10 | 94 | 1015.5 |
| 20260508084458 | 11 | 360 | 0.0 | 0.0 | 0.03 | 2.41 | 0.10 | 94 | 1015.4 |
| 20260508081458 | 11 | 360 | 0.0 | 0.0 | 0.03 | 2.41 | 0.10 | 94 | 1015.1 |
| 20260508075959 | 11 | 360 | 0.0 | 0.0 | 0.00 | 2.95 | 0.08 | 94 | 1014.9 |
| 20260508074458 | 11 | 360 | 0.0 | 0.0 | 0.03 | 2.95 | 0.08 | 94 | 1014.9 |
| 20260508073000 | 11 | 360 | 0.0 | 0.0 | 0.03 | 2.95 | 0.08 | 94 | 1014.7 |
| 20260508070001 | 12 | 360 | 0.0 | 0.0 | 0.03 | 3.56 | 0.08 | 94 | 1014.7 |
| 20260508064457 | 12 | 360 | 0.0 | 0.0 | 0.03 | 3.53 | 0.05 | 94 | 1014.6 |
| 20260508062959 | 12 | 360 | 0.0 | 0.0 | 0.03 | 3.53 | 0.05 | 94 | 1014.7 |
| 20260508061458 | 12 | 360 | 0.0 | 0.0 | 0.03 | 3.53 | 0.05 | 94 | 1014.8 |
| 20260508054458 | 13 | 360 | 0.0 | 0.0 | 0.00 | 3.51 | 0.03 | 94 | 1015.0 |
| 20260508051458 | 13 | 360 | 0.0 | 0.0 | 0.03 | 3.51 | 0.03 | 94 | 1014.6 |
| 20260508045959 | 13 | 360 | 0.0 | 0.0 | 0.03 | 3.51 | 0.03 | 94 | 1014.5 |
| 20260508044458 | 13 | 360 | 0.0 | 0.0 | 0.05 | 3.51 | 0.03 | 93 | 1014.4 |
| 20260508043000 | 13 | 360 | 0.0 | 0.0 | 0.03 | 3.48 | 0.00 | 93 | 1014.4 |
| 20260508041458 | 13 | 360 | 0.0 | 0.0 | 0.03 | 3.48 | 0.00 | 93 | 1014.3 |
| 20260508040000 | 13 | 360 | 0.0 | 0.0 | 0.03 | 3.61 | 3.48 | 93 | 1014.0 |
| 20260508034500 | 13 | 360 | 0.0 | 0.0 | 0.03 | 3.58 | 3.45 | 93 | 1014.0 |
| 20260508033001 | 13 | 360 | 0.0 | 0.0 | 0.03 | 3.58 | 3.45 | 93 | 1013.8 |
| 20260508023001 | 13 | 360 | 0.0 | 1.6 | 0.03 | 4.11 | 3.43 | 91 | 1013.7 |
| 20260508021459 | 13 | 360 | 0.0 | 1.6 | 0.03 | 4.11 | 3.43 | 91 | 1013.4 |
| 20260508014459 | 14 | 360 | 0.0 | 4.8 | 0.03 | 4.27 | 3.40 | 90 | 1012.9 |
| 20260508013001 | 14 | 360 | 0.0 | 1.6 | 0.03 | 4.27 | 3.40 | 90 | 1012.6 |
| 20260508011500 | 14 | 360 | 0.0 | 0.0 | 0.05 | 4.27 | 3.40 | 89 | 1012.3 |
| 20260508010000 | 14 | 360 | 0.0 | 3.2 | 0.03 | 4.24 | 3.38 | 89 | 1012.1 |
| 20260508004500 | 14 | 360 | 0.0 | 3.2 | 0.03 | 4.24 | 3.38 | 88 | 1012.1 |
| 20260508003002 | 15 | 360 | 1.6 | 8.0 | 0.03 | 4.24 | 3.38 | 87 | 1011.6 |
| 20260508001500 | 15 | 360 | 0.0 | 4.8 | 0.03 | 4.22 | 3.35 | 86 | 1011.1 |
| 20260507234459 | 16 | 360 | 1.6 | 4.8 | 0.03 | 4.22 | 3.35 | 85 | 1010.1 |
| 20260507233002 | 17 | 360 | 1.6 | 9.7 | 0.03 | 4.22 | 3.35 | 83 | 1009.9 |
| 20260507231459 | 19 | 360 | 0.0 | 1.6 | 0.03 | 4.19 | 3.33 | 76 | 1008.5 |
| 20260507230001 | 23 | 360 | 0.0 | 3.2 | 0.03 | 4.19 | 3.33 | 70 | 1008.0 |
| 20260507224459 | 23 | 360 | 0.0 | 1.6 | 0.03 | 4.19 | 3.33 | 69 | 1007.5 |
| 20260507223000 | 25 | 360 | 0.0 | 1.6 | 0.05 | 4.19 | 3.33 | 66 | 1007.5 |
| 20260507221500 | 25 | 360 | 0.0 | 3.2 | 0.03 | 4.17 | 3.30 | 65 | 1007.4 |
| 20260507220008 | 25 | 360 | 0.0 | 1.6 | 0.05 | 4.17 | 3.30 | 66 | 1007.3 |
| 20260507214500 | 25 | 360 | 0.0 | 1.6 | 0.05 | 4.17 | 3.30 | 66 | 1007.3 |
| 20260507212959 | 25 | 360 | 0.0 | 1.6 | 0.05 | 4.14 | 3.28 | 67 | 1007.3 |
| 20260507211458 | 24 | 360 | 0.0 | 1.6 | 0.08 | 4.14 | 3.28 | 68 | 1007.5 |
| 20260507210001 | 25 | 360 | 0.0 | 1.6 | 0.05 | 4.11 | 3.25 | 68 | 1007.3 |
| 20260507204458 | 25 | 360 | 0.0 | 1.6 | 0.08 | 4.11 | 3.25 | 67 | 1007.3 |
| 20260507202959 | 25 | 360 | 0.0 | 1.6 | 0.08 | 4.09 | 3.23 | 67 | 1007.6 |
| 20260507201458 | 24 | 360 | 0.0 | 1.6 | 0.08 | 4.06 | 3.20 | 70 | 1007.8 |
| 20260507194501 | 25 | 360 | 0.0 | 1.6 | 0.08 | 4.04 | 3.17 | 66 | 1008.0 |
| 20260507193000 | 23 | 360 | 0.0 | 1.6 | 0.10 | 4.01 | 3.15 | 68 | 1008.3 |
| 20260507191459 | 24 | 360 | 0.0 | 1.6 | 0.08 | 3.99 | 3.12 | 70 | 1008.3 |
| 20260507190001 | 25 | 360 | 0.0 | 1.6 | 0.08 | 3.96 | 3.10 | 66 | 1008.5 |
| 20260507184459 | 23 | 360 | 0.0 | 1.6 | 0.10 | 3.96 | 3.10 | 69 | 1008.4 |
| 20260507181458 | 22 | 360 | 0.0 | 1.6 | 0.13 | 3.91 | 3.05 | 83 | 1008.3 |
| 20260507180001 | 21 | 360 | 0.0 | 3.2 | 0.13 | 3.89 | 3.02 | 85 | 1008.5 |
| 20260507174459 | 21 | 360 | 0.0 | 3.2 | 0.13 | 3.86 | 3.00 | 86 | 1008.4 |
| 20260507172959 | 20 | 360 | 0.0 | 1.6 | 0.13 | 3.81 | 2.95 | 88 | 1009.2 |
| 20260507171458 | 20 | 360 | 0.0 | 1.6 | 0.13 | 3.78 | 2.92 | 88 | 1009.2 |
| 20260507170001 | 20 | 360 | 0.0 | 1.6 | 0.15 | 3.76 | 2.90 | 91 | 1009.1 |